Location: ??
(35.5052°N, 139.7262°E)
Time: 17:01:02
(UTC+00:00)

Cosmos 2278 Rocket - Pass Details

Date: 20 June 2021
Orbit: 840 x 846 km, 71.0° (Epoch: 29 July)

Event Time Altitude Azimuth Distance (km) Brightness Sun altitude
Rises 12:42:49 0° 348° (NNW) 3,407 6.5 -24.6°
Reaches altitude 10° 12:45:31 10° 358° (N) 2,470 5.4 -24.9°
Maximum altitude 12:50:35 32° 61° (ENE) 1,403 3.3 -25.4°
Enters shadow 12:51:23 31° 78° (ENE) 1,440 3.2 -25.4°
